KAZSTSAT (43783 NORAD) Tracking and Keplerian Element Data

This shows tracking and keplerian element data for the satellite.

Feedback or suggestion? Click here.




ElementValue
Catalog43783
NameKAZSTSAT
Epoch Orbit33668
Epoch Day35.08234019
Epoch Year2025
RAAN83.1605
Inclination97.4965
Eccentricity0.0005082
Argument of Perigee285.9932
Mean Anonmoly74.0731
Mean Motion14.98086256
Decay Rate3.321E-05
L11 43783U 18099AB 25035.08234019 .00003321 00000+0 28535-3 0 9998
L22 43783 97.4965 83.1605 0005082 285.9932 74.0731 14.98086256336680



Live tracking and technical data element details for KAZSTSAT (NORAD 43783). KAZSTSAT can be tracked NOW for your location showing map with azimuth and elevation plus other details from your city location.







IsCatalogInMostPopularTable: catalog: 43783, numindb: 430
Update: records affected: 1



GetName: 43783 KAZSTSAT

Hit Count: updated at: Thu, 22 May 2025 04:38:38 GMT